Tracking 27422 objects as of 30-May-2023
HD Live streaming from Space Station
objects crossing your sky now

STARLINK-4512

Track STARLINK-4512 now!
10-day predictions
STARLINK-4512 is classified as:


NORAD ID: 53398
Int'l Code: 2022-097L
Perigee: 546.1 km
Apogee: 547.6 km
Inclination: 53.2 °
Period: 95.4 minutes
Semi major axis: 6917 km
RCS: Unknown
Launch date: August 10, 2022
Source: United States (US)
Launch site: AIR FORCE EASTERN TEST RANGE (AFETR)
Your satellite tracking list
Your tracking list is empty




NASA's NSSDC Master Catalog

Two Line Element Set (TLE):
1 53398U 22097L   23150.01384965  .00000551  00000-0  52716-4 0  9991
2 53398  53.2172 359.1791 0001059  87.0725 273.0388 15.08842604 44848
Source of the keplerian elements: AFSPC